User: anonymous   Login
Location: Niverville
(49.6028°N, 97.0419°W)
Time: 12:20:56
(UTC-06:00)
Language:

Cosmos 2237 Rocket - Orbit

View from above orbital plane
View from above orbital plane
View from above satellite
View from above satellite

Ground track
Ground track

The orbit data is extracted from the following two-line orbital elements,

1 22566U 93016B   15028.65198424  .00000389  00000-0  22596-3 0  2614
2 22566 071.0081 094.1359 0010147 005.5710 354.5524 14.14879868128131
Epoch (UTC): 28 January 2015 15:38:51
Eccentricity: 0.0010147
inclination: 71.0081°
perigee height: 835 km
apogee height: 850 km
right ascension of ascending node: 94.1359°
argument of perigee: 5.5710°
revolutions per day: 14.14879868
mean anomaly at epoch: 354.5524°
orbit number at epoch: 12813

The dashed part of the orbit path shows where the satellite is in the earth's shadow,  

DLR